Stanley, ND

10:38 PM CDT on September 25, 2016 (GMT -0500)
Stanley

Weather History for K08D - December, 2013

Change the Weather History Date:

Friday, December 20, 2013

  Actual Average (KMOT) Record (KMOT)
Temperature  
Mean Temperature -3 °F 14 °F  
Max Temperature 5 °F 22 °F 50 °F (2004)
Min Temperature -11 °F 6 °F -44 °F (1916)
Degree Days  
Heating Degree Days 68 51  
Month to date heating degree days 966  
Since 1 July heating degree days 3024  
Moisture  
Dew Point -7 °F    
Average Humidity 84    
Maximum Humidity 92    
Minimum Humidity 78    
Precipitation  
Precipitation 0.00 in 0.01 in 0.30 in (1967)
Month to date precipitation 0.23  
Year to date precipitation 17.04  
Sea Level Pressure  
Sea Level Pressure 29.78 in    
Wind  
Wind Speed 7 mph (WSW)    
Max Wind Speed 13 mph    
Max Gust Speed -    
Visibility 10 miles    
Events      
T = Trace of Precipitation, MM = Missing Value Source: NWS Daily Summary

Daily Weather History Graph

Daily Weather History Graph

Search for Another Location

Airport or City:

Trip Planner

Search our weather history database for the weather conditions in past years. The results will help you decide how hot, cold, wet, or windy it might be!

Date:

Astronomy

Dec. 20, 2013 Rise Set
Actual Time 8:37 AM CST 4:57 PM CST
Civil Twilight 8:00 AM CST 5:34 PM CST
Nautical Twilight 7:20 AM CST 6:14 PM CST
Astronomical Twilight 6:42 AM CST 6:52 PM CST
Moon 8:34 PM CST (12/20) 10:19 AM CST (12/20)
Length of Visible Light 9h 33m
Length of Day
8h 19m
Waning Gibbous, 90% of the Moon is Illuminated
Dec 20
Waning Gibbous
Dec 25
Last Quarter
Jan 1
New
Jan 7
First Quarter
Jan 15
Full

Hourly Weather History & Observations

Time (CST) Temp. Windchill Dew Point Humidity Pressure Visibility Wind Dir Wind Speed Gust Speed Precip Events Conditions
12:15 AM -11.2 °F -26.4 °F -14.8 °F 84% 30.00 in 10.0 mi SW 6.9 mph - N/A   Clear
12:35 AM -9.4 °F -22.7 °F -13.0 °F 84% 30.00 in 10.0 mi SW 5.8 mph - N/A   Clear
12:55 AM -9.4 °F -25.6 °F -13.0 °F 84% 29.99 in 10.0 mi SSW 8.1 mph - N/A   Clear
1:15 AM -7.6 °F -20.6 °F -11.2 °F 84% 29.97 in 10.0 mi SW 5.8 mph - N/A   Partly Cloudy
1:35 AM -7.6 °F -22.1 °F -11.2 °F 84% 29.96 in 10.0 mi SSW 6.9 mph - N/A   Clear
1:55 AM -7.6 °F -23.4 °F -11.2 °F 84% 29.96 in 10.0 mi SSW 8.1 mph - N/A   Clear
2:15 AM -7.6 °F -20.6 °F -11.2 °F 84% 29.95 in 10.0 mi SW 5.8 mph - N/A   Clear
2:35 AM -7.6 °F -20.6 °F -11.2 °F 84% 29.94 in 10.0 mi SW 5.8 mph - N/A   Clear
2:55 AM -7.6 °F -23.4 °F -11.2 °F 84% 29.94 in 10.0 mi SSW 8.1 mph - N/A   Clear
3:15 AM -7.6 °F -27.5 °F -11.2 °F 84% 29.93 in 10.0 mi SW 12.7 mph - N/A   Clear
3:35 AM -7.6 °F -26.6 °F -11.2 °F 84% 29.92 in 10.0 mi SW 11.5 mph - N/A   Clear
3:55 AM -9.4 °F -27.9 °F -13.0 °F 84% 29.91 in 10.0 mi SW 10.4 mph - N/A   Clear
4:15 AM -9.4 °F -27.9 °F -13.0 °F 84% 29.90 in 10.0 mi SW 10.4 mph - N/A   Clear
4:35 AM -9.4 °F -26.8 °F -13.0 °F 84% 29.89 in 10.0 mi SSW 9.2 mph - N/A   Clear
4:55 AM -9.4 °F -22.7 °F -13.0 °F 84% 29.88 in 10.0 mi SW 5.8 mph - N/A   Clear
5:15 AM -11.2 °F -23.0 °F -14.8 °F 84% 29.87 in 10.0 mi SW 4.6 mph - N/A   Clear
5:35 AM -7.6 °F -24.6 °F -11.2 °F 84% 29.86 in 10.0 mi SW 9.2 mph - N/A   Scattered Clouds
5:55 AM -7.6 °F -26.6 °F -11.2 °F 84% 29.84 in 10.0 mi SW 11.5 mph - N/A   Scattered Clouds
6:15 AM -5.8 °F -21.2 °F -9.4 °F 84% 29.84 in 10.0 mi SW 8.1 mph - N/A   Mostly Cloudy
6:35 AM -5.8 °F - -9.4 °F 84% 29.83 in 10.0 mi Calm Calm - N/A   Partly Cloudy
6:55 AM -4.0 °F -19.0 °F -9.4 °F 78% 29.83 in 10.0 mi WSW 8.1 mph - N/A   Clear
7:15 AM -4.0 °F -17.8 °F -9.4 °F 78% 29.82 in 10.0 mi WSW 6.9 mph - N/A   Clear
7:35 AM -4.0 °F -17.8 °F -9.4 °F 78% 29.82 in 10.0 mi SW 6.9 mph - N/A   Clear
7:55 AM -4.0 °F -19.0 °F -9.4 °F 78% 29.81 in 10.0 mi SW 8.1 mph - N/A   Clear
8:15 AM -4.0 °F -20.2 °F -9.4 °F 78% 29.79 in 10.0 mi WSW 9.2 mph - N/A   Clear
8:35 AM -4.0 °F -20.2 °F -9.4 °F 78% 29.79 in 10.0 mi SW 9.2 mph - N/A   Clear
8:55 AM -4.0 °F -20.2 °F -9.4 °F 78% 29.78 in 10.0 mi SW 9.2 mph - N/A   Clear
9:15 AM -4.0 °F -19.0 °F -7.6 °F 85% 29.78 in 10.0 mi SW 8.1 mph - N/A   Clear
9:35 AM -4.0 °F -14.6 °F -7.6 °F 85% 29.79 in 10.0 mi WSW 4.6 mph - N/A   Clear
9:55 AM -2.2 °F -16.8 °F -7.6 °F 78% 29.78 in 10.0 mi WSW 8.1 mph - N/A   Clear
10:15 AM -2.2 °F - -5.8 °F 85% 29.77 in 10.0 mi Calm Calm - N/A   Clear
10:35 AM -0.4 °F -8.3 °F -4.0 °F 85% 29.77 in 10.0 mi WSW 3.5 mph - N/A   Clear
10:55 AM -0.4 °F - -4.0 °F 85% 29.77 in 10.0 mi Calm Calm - N/A   Clear
11:15 AM -0.4 °F -14.7 °F -2.2 °F 92% 29.76 in 10.0 mi SW 8.1 mph - N/A   Clear
11:35 AM -0.4 °F -13.4 °F -2.2 °F 92% 29.76 in 10.0 mi WSW 6.9 mph - N/A   Clear
11:55 AM 1.4 °F -14.5 °F -2.2 °F 85% 29.74 in 10.0 mi WSW 10.4 mph - N/A   Clear
12:15 PM 1.4 °F -13.5 °F -2.2 °F 85% 29.74 in 10.0 mi WSW 9.2 mph - N/A   Clear
12:35 PM 1.4 °F -15.3 °F -2.2 °F 85% 29.72 in 10.0 mi WSW 11.5 mph - N/A   Clear
12:55 PM 1.4 °F -11.3 °F -2.2 °F 85% 29.71 in 10.0 mi WSW 6.9 mph - N/A   Clear
1:15 PM 1.4 °F -13.5 °F -2.2 °F 85% 29.71 in 10.0 mi WSW 9.2 mph - N/A   Clear
1:35 PM 1.4 °F -9.9 °F -2.2 °F 85% 29.70 in 10.0 mi WSW 5.8 mph - N/A   Clear
1:55 PM 3.2 °F -10.3 °F -2.2 °F 78% 29.69 in 10.0 mi West 8.1 mph - N/A   Clear
2:15 PM 3.2 °F -10.3 °F -2.2 °F 78% 29.68 in 10.0 mi WSW 8.1 mph - N/A   Clear
2:35 PM 5.0 °F -5.6 °F -0.4 °F 78% 29.67 in 10.0 mi WSW 5.8 mph - N/A   Clear
3:15 PM 3.2 °F -10.3 °F -2.2 °F 78% 29.67 in 10.0 mi West 8.1 mph - N/A   Clear
3:35 PM 3.2 °F -7.8 °F -2.2 °F 78% 29.67 in 10.0 mi WNW 5.8 mph - N/A   Clear
3:55 PM 3.2 °F -6.2 °F -2.2 °F 78% 29.67 in 10.0 mi WNW 4.6 mph - N/A   Clear
4:15 PM 3.2 °F -9.1 °F -2.2 °F 78% 29.67 in 10.0 mi WNW 6.9 mph - N/A   Partly Cloudy
4:35 PM 3.2 °F -4.2 °F -0.4 °F 85% 29.67 in 10.0 mi WNW 3.5 mph - N/A   Partly Cloudy
4:55 PM 3.2 °F -4.2 °F -0.4 °F 85% 29.67 in 10.0 mi WNW 3.5 mph - N/A   Partly Cloudy
5:15 PM 1.4 °F -6.2 °F -0.4 °F 92% 29.66 in 10.0 mi West 3.5 mph - N/A   Mostly Cloudy
5:35 PM 1.4 °F -6.2 °F -2.2 °F 85% 29.67 in 10.0 mi West 3.5 mph - N/A   Mostly Cloudy
5:55 PM -0.4 °F -10.4 °F -4.0 °F 85% 29.68 in 10.0 mi NW 4.6 mph - N/A   Mostly Cloudy
6:15 PM -0.4 °F -8.3 °F -4.0 °F 85% 29.68 in 10.0 mi NNW 3.5 mph - N/A   Partly Cloudy
6:35 PM -0.4 °F -10.4 °F -4.0 °F 85% 29.68 in 10.0 mi NW 4.6 mph - N/A   Clear
6:55 PM -2.2 °F -12.5 °F -5.8 °F 85% 29.67 in 10.0 mi NNW 4.6 mph - N/A   Clear
7:15 PM -2.2 °F -10.4 °F -5.8 °F 85% 29.67 in 10.0 mi NW 3.5 mph - N/A   Clear
7:35 PM -2.2 °F -10.4 °F -5.8 °F 85% 29.67 in 10.0 mi NNW 3.5 mph - N/A   Clear
7:55 PM -4.0 °F -12.4 °F -7.6 °F 85% 29.68 in 10.0 mi NW 3.5 mph - N/A   Clear
8:15 PM -4.0 °F -14.6 °F -7.6 °F 85% 29.68 in 10.0 mi NNW 4.6 mph - N/A   Clear
8:35 PM -4.0 °F - -7.6 °F 85% 29.69 in 10.0 mi Calm Calm - N/A   Partly Cloudy
8:55 PM -4.0 °F -14.6 °F -7.6 °F 85% 29.68 in 10.0 mi NNE 4.6 mph - N/A   Clear
9:15 PM -5.8 °F -18.4 °F -9.4 °F 84% 29.69 in 10.0 mi NNE 5.8 mph - N/A   Clear
9:35 PM -5.8 °F -16.7 °F -9.4 °F 84% 29.69 in 10.0 mi North 4.6 mph - N/A   Clear
9:55 PM -7.6 °F -16.5 °F -11.2 °F 84% 29.70 in 10.0 mi North 3.5 mph - N/A   Clear
10:15 PM -7.6 °F -20.6 °F -11.2 °F 84% 29.71 in 10.0 mi NE 5.8 mph - N/A   Partly Cloudy
10:35 PM -7.6 °F -18.8 °F -9.4 °F 92% 29.70 in 10.0 mi NNE 4.6 mph - N/A   Clear
10:55 PM -7.6 °F -20.6 °F -11.2 °F 84% 29.71 in 10.0 mi NNE 5.8 mph - N/A   Partly Cloudy
11:15 PM -5.8 °F -18.4 °F -9.4 °F 84% 29.72 in 10.0 mi NE 5.8 mph - N/A   Clear
11:35 PM -5.8 °F -16.7 °F -9.4 °F 84% 29.72 in 10.0 mi NE 4.6 mph - N/A   Clear
11:55 PM -5.8 °F -18.4 °F -9.4 °F 84% 29.72 in 10.0 mi NE 5.8 mph - N/A   Clear